Weather History for KVLL - February, 2013

Change the Weather History Date:

Friday, February 8, 2013

  Actual Average (KDET) Record (KDET)
Temperature  
Mean Temperature 30 °F -  
Max Temperature 32 °F 29 °F 54 °F (1990)
Min Temperature 27 °F 16 °F 2 °F (1951)
Degree Days  
Heating Degree Days 36    
Moisture  
Dew Point 25 °F    
Average Humidity 81    
Maximum Humidity 92    
Minimum Humidity 71    
Precipitation  
Precipitation 0.00 in - - ()
Sea Level Pressure  
Sea Level Pressure 30.04 in    
Wind  
Wind Speed 13 mph (North)    
Max Wind Speed 22 mph    
Max Gust Speed 33 mph    
Visibility 6 miles    
Events Snow    
Averages and records for this station are not official NWS values.
T = Trace of Precipitation, MM = Missing Value Source: NWS Daily Summary

Daily Weather History Graph

Daily Weather History Graph

Search for Another Location

Airport or City:

Trip Planner

Search our weather history database for the weather conditions in past years. The results will help you decide how hot, cold, wet, or windy it might be!

Date:

Astronomy

Feb. 08, 2013 Rise Set
Actual Time 7:38 AM EST 5:56 PM EST
Civil Twilight 7:09 AM EST 6:25 PM EST
Nautical Twilight 6:35 AM EST 6:58 PM EST
Astronomical Twilight 6:02 AM EST 7:31 PM EST
Moon 6:07 AM EST (2/8) 4:27 PM EST (2/8)
Length of Visible Light 11h 16m
Length of Day
10h 17m
Waning Crescent, 3% of the Moon is Illuminated
Feb 8
Waning Crescent
Feb 10
New
Feb 17
First Quarter
Feb 25
Full
Mar 4
Last Quarter

Hourly Weather History & Observations

Time (EST) Temp. Windchill Dew Point Humidity Pressure Visibility Wind Dir Wind Speed Gust Speed Precip Events Conditions
12:14 AM 32.0 °F 23.0 °F 27.5 °F 83% 29.90 in 0.8 mi NE 11.5 mph - N/A Snow Snow
12:34 AM 31.5 °F 23.5 °F 28.4 °F 88% 29.90 in 1.0 mi ENE 9.2 mph - N/A Snow Light Snow
12:55 AM 31.5 °F 23.5 °F 28.8 °F 90% 29.88 in 0.8 mi ENE 9.2 mph - N/A Snow Snow
1:14 AM 31.3 °F 22.7 °F 28.9 °F 91% 29.86 in 0.5 mi ENE 10.4 mph - N/A Snow Snow
1:34 AM 31.5 °F 21.8 °F 29.3 °F 92% 29.85 in 0.5 mi ENE 12.7 mph 17.3 mph N/A Snow Heavy Snow
1:55 AM 31.5 °F 23.5 °F 29.3 °F 92% 29.83 in 0.8 mi ENE 9.2 mph - N/A Snow Snow
2:14 AM 31.6 °F 22.1 °F 29.3 °F 91% 29.82 in 0.8 mi ENE 12.7 mph - N/A Snow Snow
2:35 AM 31.8 °F 23.3 °F 29.7 °F 92% 29.82 in 0.8 mi ENE 10.4 mph - N/A Snow Snow
2:55 AM 31.8 °F 23.3 °F 29.7 °F 92% 29.82 in 0.5 mi ENE 10.4 mph - N/A Snow Heavy Snow
3:14 AM 32.0 °F 24.8 °F 29.8 °F 92% 29.81 in 0.8 mi NE 8.1 mph - N/A Snow Snow
3:35 AM 32.0 °F 24.8 °F 30.0 °F 92% 29.81 in 1.5 mi NE 8.1 mph - N/A Snow Light Snow
3:54 AM 32.0 °F 26.4 °F 30.0 °F 92% 29.81 in 1.2 mi NNE 5.8 mph - N/A Snow Light Snow
4:34 AM 32.0 °F 24.2 °F 30.0 °F 92% 29.79 in 1.5 mi NNE 9.2 mph - N/A Snow Light Snow
4:54 AM 32.0 °F 25.6 °F 30.0 °F 92% 29.80 in 2.5 mi NNE 6.9 mph - N/A Snow Light Snow
5:15 AM 32.0 °F 24.2 °F 30.0 °F 92% 29.81 in 4.0 mi North 9.2 mph - N/A Snow Light Snow
5:34 AM 32.0 °F 25.6 °F 30.0 °F 92% 29.81 in 7.0 mi North 6.9 mph - N/A   Overcast
6:14 AM 32.2 °F 24.4 °F 30.0 °F 92% 29.81 in 5.0 mi North 9.2 mph - N/A Snow Light Snow
6:34 AM 32.5 °F 23.2 °F 30.2 °F 91% 29.82 in 4.0 mi NNW 12.7 mph 16.1 mph N/A Snow Light Snow
6:55 AM 32.7 °F 23.4 °F 30.2 °F 90% 29.83 in 7.0 mi North 12.7 mph 19.6 mph N/A Snow Light Snow
7:14 AM 32.5 °F 24.2 °F 29.8 °F 90% 29.85 in 4.0 mi North 10.4 mph 19.6 mph N/A Snow Light Snow
7:34 AM 32.0 °F 20.5 °F 29.3 °F 90% 29.86 in 3.0 mi North 18.4 mph 26.5 mph N/A Snow Light Snow
7:55 AM 32.0 °F 20.5 °F 28.8 °F 88% 29.87 in 4.0 mi North 18.4 mph 27.6 mph N/A Snow Light Snow
8:14 AM 32.0 °F 20.5 °F 28.2 °F 86% 29.88 in 2.5 mi North 18.4 mph 26.5 mph N/A Snow Light Snow
8:34 AM 31.5 °F 20.9 °F 27.3 °F 85% 29.90 in 1.5 mi North 15.0 mph 24.2 mph N/A Snow Light Snow
8:54 AM 30.9 °F 19.4 °F 27.3 °F 86% 29.91 in 0.8 mi North 17.3 mph 24.2 mph N/A Snow Light Snow
9:15 AM 30.7 °F 20.9 °F 27.3 °F 87% 29.93 in 1.0 mi North 12.7 mph 23.0 mph N/A Snow Light Snow
9:34 AM 31.1 °F 20.1 °F 27.0 °F 85% 29.93 in 1.8 mi North 16.1 mph 24.2 mph N/A Snow Light Snow
9:55 AM 31.8 °F 20.6 °F 26.4 °F 80% 29.94 in 4.0 mi North 17.3 mph 31.1 mph N/A Snow Light Snow
10:14 AM 32.0 °F 19.8 °F 25.9 °F 78% 29.95 in 4.0 mi North 20.7 mph 29.9 mph N/A   Haze
10:35 AM 31.6 °F 19.3 °F 25.2 °F 77% 29.96 in 4.0 mi North 20.7 mph 29.9 mph N/A   Haze
10:55 AM 31.8 °F 20.2 °F 24.8 °F 75% 29.98 in 3.0 mi North 18.4 mph 33.4 mph N/A Snow Light Snow
11:14 AM 32.0 °F 21.2 °F 25.0 °F 75% 30.00 in 7.0 mi NNW 16.1 mph 24.2 mph N/A   Overcast
11:54 AM 31.6 °F 19.0 °F 23.7 °F 73% 30.03 in 2.5 mi NNW 21.9 mph 31.1 mph N/A   Haze
12:14 PM 31.1 °F 19.7 °F 23.9 °F 75% 30.04 in 7.0 mi NNW 17.3 mph 28.8 mph N/A   Overcast
12:35 PM 30.2 °F 18.1 °F 23.5 °F 76% 30.05 in 3.0 mi NNW 18.4 mph 31.1 mph N/A   Haze
12:54 PM 30.2 °F 17.1 °F 23.2 °F 75% 30.06 in 4.0 mi NNW 21.9 mph 29.9 mph N/A   Haze
1:14 PM 29.8 °F 18.9 °F 22.8 °F 75% 30.07 in 7.0 mi NNW 15.0 mph 28.8 mph N/A   Overcast
1:34 PM 29.8 °F 17.3 °F 22.5 °F 74% 30.08 in 7.0 mi North 19.6 mph 28.8 mph N/A   Overcast
1:54 PM 30.2 °F 17.8 °F 22.8 °F 74% 30.09 in 10.0 mi NNW 19.6 mph 27.6 mph N/A   Overcast
2:15 PM 30.0 °F 17.9 °F 22.8 °F 75% 30.10 in 7.0 mi NW 18.4 mph 23.0 mph N/A   Overcast
2:34 PM 30.0 °F 19.5 °F 23.0 °F 75% 30.10 in 7.0 mi North 13.8 mph 25.3 mph N/A   Overcast
2:54 PM 30.0 °F 17.2 °F 23.0 °F 75% 30.11 in 7.0 mi North 20.7 mph 29.9 mph N/A   Overcast
3:15 PM 30.0 °F 17.9 °F 23.5 °F 77% 30.12 in 10.0 mi NNW 18.4 mph 25.3 mph N/A   Overcast
3:34 PM 29.7 °F 20.1 °F 23.7 °F 79% 30.13 in 7.0 mi NNW 11.5 mph 19.6 mph N/A   Overcast
3:54 PM 29.8 °F 18.4 °F 23.9 °F 79% 30.14 in 7.0 mi NNW 16.1 mph - N/A   Overcast
4:15 PM 29.7 °F 18.6 °F 23.7 °F 79% 30.15 in 10.0 mi NNW 15.0 mph 25.3 mph N/A   Overcast
4:34 PM 29.3 °F 16.2 °F 22.6 °F 76% 30.17 in 7.0 mi North 20.7 mph 26.5 mph N/A   Overcast
4:54 PM 28.8 °F 17.9 °F 21.7 °F 75% 30.18 in 10.0 mi NNW 13.8 mph 24.2 mph N/A   Overcast
5:15 PM 28.2 °F 17.2 °F 21.7 °F 77% 30.20 in 7.0 mi North 13.8 mph 21.9 mph N/A   Overcast
5:34 PM 28.2 °F 18.9 °F 21.7 °F 77% 30.21 in 10.0 mi North 10.4 mph 20.7 mph N/A   Overcast
5:55 PM 28.2 °F 17.2 °F 21.7 °F 77% 30.22 in 5.0 mi North 13.8 mph 19.6 mph N/A   Haze
6:34 PM 28.2 °F 17.2 °F 21.0 °F 74% 30.24 in 10.0 mi NNW 13.8 mph 18.4 mph N/A   Overcast
6:55 PM 28.2 °F 17.2 °F 20.7 °F 73% 30.25 in 10.0 mi NNW 13.8 mph 21.9 mph N/A   Overcast
7:14 PM 28.2 °F 17.7 °F 20.7 °F 73% 30.26 in 10.0 mi NNW 12.7 mph 20.7 mph N/A   Overcast
7:34 PM 28.0 °F 17.0 °F 20.7 °F 74% 30.27 in 10.0 mi NNW 13.8 mph 25.3 mph N/A   Overcast
7:55 PM 28.0 °F 17.5 °F 20.7 °F 74% 30.27 in 10.0 mi NNW 12.7 mph 23.0 mph N/A   Overcast
8:14 PM 27.9 °F 17.3 °F 20.7 °F 74% 30.27 in 10.0 mi North 12.7 mph 17.3 mph N/A   Overcast
8:35 PM 28.0 °F 17.5 °F 20.7 °F 74% 30.28 in 10.0 mi NNW 12.7 mph 20.7 mph N/A   Overcast
8:54 PM 28.0 °F 17.5 °F 20.5 °F 73% 30.29 in 10.0 mi NNW 12.7 mph 19.6 mph N/A   Overcast
9:15 PM 28.0 °F 17.5 °F 20.3 °F 73% 30.30 in 10.0 mi North 12.7 mph 16.1 mph N/A   Overcast
9:35 PM 28.0 °F 18.6 °F 20.1 °F 72% 30.30 in 10.0 mi NNW 10.4 mph 17.3 mph N/A   Overcast
9:54 PM 27.9 °F 19.1 °F 19.9 °F 72% 30.31 in 10.0 mi North 9.2 mph 18.4 mph N/A   Overcast
10:14 PM 27.9 °F 20.6 °F 20.1 °F 73% 30.32 in 10.0 mi North 6.9 mph - N/A   Overcast
10:34 PM 27.9 °F 19.1 °F 19.4 °F 71% 30.32 in 10.0 mi NNW 9.2 mph - N/A   Overcast
10:54 PM 27.7 °F 21.3 °F 19.4 °F 71% 30.32 in 10.0 mi NNW 5.8 mph - N/A   Overcast
11:15 PM 27.5 °F 18.0 °F 19.2 °F 71% 30.32 in 10.0 mi NNW 10.4 mph - N/A   Overcast
11:34 PM 27.5 °F 20.2 °F 19.4 °F 72% 30.33 in 10.0 mi NW 6.9 mph - N/A   Overcast
11:54 PM 27.3 °F 19.1 °F 19.6 °F 73% 30.34 in 10.0 mi NW 8.1 mph - N/A   Overcast